Location: Recife
(8.0585°S, 34.8848°W)
Time: 07:40:42
(UTC-03:00)

Vanguard 1 - Pass Details

Date: 20 April 2026
Orbit: 654 x 3817 km, 34.2° (Epoch: 13 May)

Event Time Altitude Azimuth Distance (km) Brightness Sun altitude
Rises 08:33:31 0° 279° (W) 3,988 12.8 44.5°
Reaches altitude 10° 08:37:25 10° 263° (W) 2,619 12.0 45.4°
Maximum altitude 08:41:38 20° 216° (SW) 1,674 11.1 46.3°
Drops below altitude 10° 08:45:06 10° 166° (SSE) 2,101 11.8 47.1°
Sets 08:47:49 0° 147° (SSE) 2,971 12.6 47.7°
